Date,TemperatureHighF,TemperatureAvgF,TemperatureLowF,DewpointHighF,DewpointAvgF,DewpointLowF,HumidityHigh,HumidityAvg,HumidityLow,PressureMaxIn,PressureMinIn,WindSpeedMaxMPH,WindSpeedAvgMPH,GustSpeedMaxMPH,PrecipitationSumIn
2013-1-1,44.1,40.4,36.6,31.0,27.7,23.0,69,61,50,30.02,29.90,4,0,0,0.00
2013-1-2,39.1,33.4,26.3,29.0,19.3,13.0,71,57,41,30.24,29.99,9,1,0,0.00
2013-1-3,36.5,29.0,23.2,22.0,17.8,15.0,84,64,47,30.26,30.16,5,0,0,0.00
2013-1-4,42.6,35.6,25.8,22.6,20.4,19.0,79,55,41,30.21,30.09,12,3,17,0.00
2013-1-5,43.3,36.5,29.0,30.0,23.2,19.0,78,59,44,30.38,30.14,10,1,0,0.00
2013-1-6,51.3,42.4,29.5,33.0,29.1,26.0,92,62,39,30.20,30.02,6,1,0,0.00
2013-1-7,46.5,37.6,28.2,30.0,26.1,23.0,85,65,46,30.44,30.14,13,1,0,0.00
2013-1-8,53.9,39.5,27.2,38.0,30.7,23.8,93,72,42,30.43,30.37,10,1,13,0.00
2013-1-9,52.8,42.3,30.1,44.0,36.8,29.0,97,82,45,30.39,30.23,10,1,0,0.00
2013-1-10,52.9,45.5,38.2,33.0,29.6,26.0,74,55,38,30.59,30.37,7,1,0,0.00
2013-1-11,43.5,39.5,32.5,43.0,36.1,29.0,100,88,74,30.51,30.10,2,0,0,0.04
2013-1-12,55.1,45.2,40.1,48.0,43.5,39.3,100,94,78,30.17,30.10,4,0,3,0.00
2013-1-13,48.8,44.6,41.3,49.0,44.6,41.0,100,100,99,30.14,29.99,6,1,9,0.02
2013-1-14,60.7,54.8,41.2,61.0,50.1,36.0,100,85,59,30.29,29.95,10,2,0,0.10
2013-1-15,40.9,38.9,36.5,40.0,37.9,35.0,98,96,90,30.35,30.15,5,1,0,0.65
2013-1-16,41.2,38.0,35.2,41.0,37.8,35.0,99,99,97,30.16,29.87,10,1,0,0.32
2013-1-17,44.1,40.9,37.8,41.0,35.3,30.0,99,82,60,30.13,29.98,5,0,0,0.03
2013-1-18,37.9,33.9,27.8,31.0,17.7,7.0,76,53,31,30.51,30.03,12,2,0,0.00
2013-1-19,53.5,40.8,30.4,29.0,25.6,17.0,73,56,36,30.44,29.98,15,4,0,0.00
2013-1-20,58.9,47.0,33.8,32.0,23.6,11.0,60,42,23,30.09,29.82,19,4,0,0.00
2013-1-21,41.5,35.2,30.0,34.0,20.8,11.0,80,57,43,30.11,29.80,12,2,0,0.00
2013-1-22,30.1,21.2,17.0,12.0,-2.4,-8.0,50,36,29,30.30,29.91,19,6,0,0.00
2013-1-23,25.4,19.6,10.7,5.0,-0.1,-4.0,68,43,31,30.36,30.16,15,2,0,0.00
2013-1-24,25.8,20.6,16.2,15.0,7.1,-2.0,87,59,31,30.52,30.11,16,2,0,0.02
2013-1-25,23.3,19.0,14.6,18.0,7.6,1.0,90,64,40,30.52,30.08,4,0,3,0.00
2013-1-26,32.9,26.1,20.6,19.0,18.1,16.0,89,72,55,30.44,30.09,12,1,2,0.03
2013-1-27,36.8,27.1,17.8,23.0,19.2,15.0,90,74,46,30.61,30.44,5,0,5,0.00
2013-1-28,47.3,36.0,30.1,45.0,32.7,22.0,99,88,71,30.52,30.04,11,2,0,0.14
2013-1-29,62.7,50.5,40.1,52.0,45.5,39.0,100,84,64,30.13,30.00,10,2,0,0.00
2013-1-30,70.8,57.3,42.8,62.0,54.0,42.0,100,89,72,29.99,29.27,15,4,0,0.46
2013-1-31,60.7,43.8,27.5,61.0,28.0,12.0,100,56,34,29.93,29.15,20,8,0,0.62